Location: Rathdrum
(47.8130°N, 116.8960°W)
Time: 01:50:35
(UTC-07:00)

Amateur Radio Satellites - All Passes

Search period start: 24 June 2017 01:20
Search period end: 25 June 2017 01:20
Location: Rathdrum, 47.8130°N, 116.8960°W

Satellite Date Start Highest point End Downlink Frequencies (MHz)
Time Altitude Azimuth
VELOX 1 24 Jun 01:23:04 01:26:29 22° 267° (W) 01:29:55 145.980
FO-29 24 Jun 01:36:08 01:39:35 14° 316° (NW) 01:43:04 435.910
BUGSAT 1 24 Jun 01:36:53 01:41:09 68° 102° (ESE) 01:45:22 437.445
Oscar 19 24 Jun 01:37:31 01:41:55 28° 94° (E) 01:46:18 437.125/150
50 SAT 24 Jun 01:38:55 01:41:29 20° 266° (W) 01:44:03 437.505
EO-79 24 Jun 01:39:05 01:42:55 32° 293° (WNW) 01:46:43 145.935-145.965
NO-84 24 Jun 01:40:27 01:44:19 32° 354° (N) 01:48:17 435.350 FM
DX 1 24 Jun 01:47:52 01:51:45 32° 263° (W) 01:55:39 434.975-435.025
RS-15 24 Jun 01:55:13 02:06:19 36° 354° (N) 02:17:15 29.354- 29.394
DUCHIFAT 1 24 Jun 01:55:27 01:59:04 27° 294° (WNW) 02:02:40 145.980
NANOSAT C BR1 24 Jun 02:03:15 02:06:31 22° 297° (WNW) 02:09:46 145.865
UKube-1 24 Jun 02:08:55 02:12:38 28° 264° (W) 02:16:22 .
Gurwin Techsat 1B 24 Jun 02:16:10 02:21:10 40° 97° (E) 02:26:09 435.225
MOZHAYETS 4 24 Jun 02:40:08 02:44:30 42° 69° (ENE) 02:48:53
ITUPSAT 1 24 Jun 02:42:10 02:46:57 68° 72° (ENE) 02:51:45 437.325
BEESAT 24 Jun 02:53:22 02:58:10 87° 72° (ENE) 03:03:00 436.000
BUGSAT 1 24 Jun 03:13:31 03:16:00 15° 300° (WNW) 03:18:27 437.445
Oscar 19 24 Jun 03:16:33 03:21:23 43° 293° (WNW) 03:26:12 437.125/150
CUBESAT XI-V 24 Jun 03:17:24 03:20:56 22° 62° (ENE) 03:24:27 437.345
NO-84 24 Jun 03:18:37 03:22:43 38° 15° (NNE) 03:26:50 435.350 FM
AO-7 24 Jun 03:20:08 03:27:05 28° 93° (E) 03:33:58 .
AO-85 24 Jun 03:34:17 03:36:24 14° 28° (NNE) 03:38:35 145.980
ITAMSAT 1 24 Jun 03:49:59 03:54:53 38° 97° (E) 03:59:45 435.822/435.867
Gurwin Techsat 1B 24 Jun 03:56:18 04:01:02 33° 296° (WNW) 04:05:45 435.225
RS-15 24 Jun 04:10:54 04:22:40 46° 28° (NNE) 04:33:58 29.354- 29.394
MOZHAYETS 4 24 Jun 04:17:59 04:21:48 25° 267° (W) 04:25:38
ITUPSAT 1 24 Jun 04:22:13 04:25:15 16° 270° (W) 04:28:18 437.325
KKS-1 24 Jun 04:26:10 04:30:33 68° 73° (ENE) 04:35:00 437.445
BEESAT 24 Jun 04:34:33 04:36:35 13° 273° (W) 04:38:39 436.000
BEESAT 3 24 Jun 04:36:41 04:39:50 21° 36° (NE) 04:42:56 437.485
CUBESAT XI-V 24 Jun 04:53:28 04:57:59 50° 261° (W) 05:02:31 437.345
NO-84 24 Jun 04:56:16 05:00:41 80° 213° (SSW) 05:04:59 435.350 FM
STARS 24 Jun 05:00:41 05:05:01 67° 73° (ENE) 05:09:25 437.465
AO-7 24 Jun 05:12:14 05:20:37 77° 293° (WNW) 05:28:58 .
AO-85 24 Jun 05:13:33 05:17:35 60° 49° (NE) 05:21:49 145.980
ITAMSAT 1 24 Jun 05:29:36 05:34:17 34° 296° (WNW) 05:38:57 435.822/435.867
BEESAT 2 24 Jun 05:31:37 05:35:04 25° 39° (NE) 05:38:29 435.950
XW-2C 24 Jun 05:46:40 05:47:16 10° 88° (E) 05:47:53 145.795 - 145.815
DOVE 4 24 Jun 05:47:28 05:51:44 30° 95° (E) 05:56:11 437.250
KAITUO 1B 24 Jun 06:03:57 06:05:39 13° 89° (E) 06:07:20 145.475/437.950
KKS-1 24 Jun 06:05:10 06:07:36 14° 271° (W) 06:10:02 437.445
BEESAT 3 24 Jun 06:13:47 06:17:48 66° 236° (SW) 06:21:44 437.485
O/OREOS (USA 219) 24 Jun 06:19:21 06:22:42 20° 48° (NE) 06:26:02 437.305
CUTE-I 24 Jun 06:21:12 06:25:43 27° 93° (E) 06:30:12 437.470
RS-15 24 Jun 06:24:12 06:36:28 81° 237° (WSW) 06:48:05 29.354- 29.394
STRAND 1 24 Jun 06:25:36 06:30:13 35° 65° (ENE) 06:34:52 437.568
NO-84 24 Jun 06:34:56 06:37:41 17° 233° (SW) 06:40:24 435.350 FM
STARS 24 Jun 06:39:27 06:41:50 14° 271° (W) 06:44:13 437.465
NUDT-PHONESAT 24 Jun 06:40:43 06:44:05 31° 96° (E) 06:47:24 437.300
XW-2F 24 Jun 06:50:59 06:54:41 52° 99° (E) 06:58:20 145.980 - 146.000
XW-2D 24 Jun 06:53:47 06:57:34 61° 101° (E) 07:01:16 145.860 - 145.880
AO-85 24 Jun 06:54:48 06:57:37 18° 246° (WSW) 07:00:32 145.980
LilacSat-2 24 Jun 07:00:04 07:03:53 75° 102° (ESE) 07:07:39 437.200
HO-68 24 Jun 07:02:28 07:07:53 22° 90° (E) 07:13:15 435.675
XW-2B 24 Jun 07:02:44 07:06:32 76° 103° (ESE) 07:10:17 145.730 - 145.750
AO-7 24 Jun 07:06:03 07:12:09 23° 315° (NW) 07:18:15 .
BEESAT 2 24 Jun 07:09:06 07:13:04 50° 238° (WSW) 07:16:58 435.950
CUBEBUG 2 24 Jun 07:14:26 07:15:41 11° 85° (E) 07:16:57 437.445
CUTE 1.7 + AOD 2 24 Jun 07:17:56 07:20:59 19° 91° (E) 07:24:02 437.475
XW-2C 24 Jun 07:18:10 07:21:57 70° 286° (WNW) 07:25:41 145.795 - 145.815
DOVE 4 24 Jun 07:25:02 07:29:28 38° 291° (WNW) 07:34:07 437.250
KAITUO 1B 24 Jun 07:36:22 07:40:01 55° 287° (WNW) 07:43:37 145.475/437.950
UWE-3 24 Jun 07:50:14 07:52:55 15° 88° (E) 07:55:34 435.000/436.395/437.385
XW-2A 24 Jun 07:55:07 07:58:13 30° 97° (E) 08:01:16 145.665 - 145.685
O/OREOS (USA 219) 24 Jun 07:58:05 08:02:31 60° 249° (WSW) 08:06:55 437.305
AAUSAT CUBESAT 2 24 Jun 07:59:31 08:02:10 16° 91° (E) 08:04:48 437.432
CUTE-I 24 Jun 08:00:49 08:06:00 50° 292° (WNW) 08:11:10 437.470
STRAND 1 24 Jun 08:04:39 08:09:22 36° 264° (W) 08:14:07 437.568
YUBILEINY 24 Jun 08:07:50 08:15:45 34° 65° (ENE) 08:23:34 435.215
Tancredo 1 24 Jun 08:08:55 08:09:47 11° 135° (SE) 08:10:40 437.200
NUDT-PHONESAT 24 Jun 08:14:56 08:17:50 22° 294° (WNW) 08:20:43 437.300
FO-29 24 Jun 08:20:36 08:25:47 28° 56° (ENE) 08:31:29 435.910
XW-2F 24 Jun 08:26:15 08:28:25 15° 298° (WNW) 08:30:35 145.980 - 146.000
XW-2D 24 Jun 08:29:25 08:31:17 13° 299° (WNW) 08:33:07 145.860 - 145.880
LilacSat-2 24 Jun 08:36:19 08:37:36 11° 300° (WNW) 08:38:52 437.200
TIGRISAT 24 Jun 08:37:05 08:40:14 18° 60° (ENE) 08:43:24 435.000
RS-15 24 Jun 08:38:13 08:46:58 25° 261° (W) 08:55:27 29.354- 29.394
SEEDS 24 Jun 08:38:19 08:42:30 85° 105° (ESE) 08:46:40 437.485
XW-2B 24 Jun 08:38:56 08:40:09 11° 300° (WNW) 08:41:21 145.730 - 145.750
M-CUBED/EXP-1 PRIME 24 Jun 08:47:12 08:50:25 55° 67° (ENE) 08:53:38 437.505
CUBEBUG 2 24 Jun 08:48:16 08:53:04 85° 105° (ESE) 08:57:43 437.445
HO-68 24 Jun 08:49:11 08:56:24 81° 290° (WNW) 09:03:34 435.675
AO-73 24 Jun 08:49:45 08:53:40 29° 94° (E) 08:57:29 145.935
CUTE 1.7 + AOD 2 24 Jun 08:53:02 08:57:03 45° 289° (WNW) 09:01:03 437.475
PRISM 24 Jun 08:55:37 08:58:59 25° 65° (ENE) 09:02:20 437.425
UNISAT 6 24 Jun 09:17:14 09:21:35 42° 69° (ENE) 09:26:01 437.425
Oscar 11 24 Jun 09:18:33 09:22:41 43° 98° (E) 09:26:47 .
ZACube-1 24 Jun 09:23:31 09:28:03 70° 102° (ESE) 09:32:26 437.345
UWE-3 24 Jun 09:25:15 09:29:53 68° 287° (WNW) 09:34:22 435.000/436.395/437.385
XW-2A 24 Jun 09:28:16 09:30:46 19° 294° (WNW) 09:33:15 145.665 - 145.685
AAUSAT CUBESAT 2 24 Jun 09:33:56 09:37:55 51° 288° (WNW) 09:41:54 437.432
DELFI C3 24 Jun 09:39:16 09:42:11 19° 92° (E) 09:45:04 145.870
Tancredo 1 24 Jun 09:41:51 09:44:51 63° 152° (SSE) 09:47:53 437.200
ISS 24 Jun 09:43:52 09:46:57 39° 146° (SE) 09:50:03 437.550
FO-29 24 Jun 10:04:11 10:10:13 67° 259° (W) 10:17:09 435.910
YUBILEINY 24 Jun 10:04:27 10:13:10 64° 268° (W) 10:21:48 435.215
AIST 2D 24 Jun 10:09:13 10:11:30 16° 64° (ENE) 10:13:47 435.315
TIGRISAT 24 Jun 10:11:50 10:16:24 65° 259° (WSW) 10:21:06 435.000
SEEDS 24 Jun 10:15:58 10:17:34 12° 302° (WNW) 10:19:08 437.485
POLYITAN 1 24 Jun 10:24:27 10:27:06 16° 60° (ENE) 10:29:46 437.675
AO-73 24 Jun 10:25:53 10:29:54 33° 293° (WNW) 10:33:50 145.935
CUBEBUG 2 24 Jun 10:26:23 10:28:59 15° 302° (WNW) 10:31:33 437.445
PRISM 24 Jun 10:30:28 10:34:08 32° 263° (W) 10:37:50 437.425
QB50P2 24 Jun 10:34:30 10:37:43 21° 63° (ENE) 10:40:58 145.880/145.840
HO-68 24 Jun 10:38:07 10:43:07 21° 311° (NW) 10:48:07 435.675
UNISAT 6 24 Jun 10:54:40 10:58:27 25° 267° (W) 11:02:17 437.425
Oscar 11 24 Jun 10:55:14 10:58:34 22° 296° (WNW) 11:01:53 .
EO-88 24 Jun 10:58:28 11:02:09 79° 285° (WNW) 11:05:47 145.990 - 145.960
EO-79 24 Jun 10:58:48 11:02:36 32° 67° (ENE) 11:06:26 145.935-145.965
ZACube-1 24 Jun 11:01:02 11:03:46 16° 301° (WNW) 11:06:27 437.345
UWE-3 24 Jun 11:04:39 11:05:25 10° 306° (NW) 11:06:10 435.000/436.395/437.385
DELFI C3 24 Jun 11:13:26 11:17:06 39° 290° (WNW) 11:20:47 145.870
DUCHIFAT 1 24 Jun 11:14:19 11:18:13 38° 69° (ENE) 11:22:10 145.980
Tancredo 1 24 Jun 11:17:39 11:20:34 42° 351° (N) 11:23:31 437.200
ISS 24 Jun 11:20:09 11:23:23 55° 345° (NNW) 11:26:39 437.550
NANOSAT C BR1 24 Jun 11:21:51 11:25:57 50° 71° (ENE) 11:30:06 145.865
Oscar 19 24 Jun 11:23:18 11:24:12 10° 51° (NE) 11:25:06 437.125/150
ESTCUBE 1 24 Jun 11:25:08 11:28:27 20° 92° (E) 11:31:45 437.505/2401.250
LO-87 24 Jun 11:25:51 11:29:05 29° 96° (E) 11:32:18 145.935 - 145.965
AIST 2D 24 Jun 11:41:02 11:44:25 41° 262° (W) 11:47:49 435.315
FO-29 24 Jun 11:54:49 11:56:54 12° 282° (WNW) 11:59:02 435.910
POLYITAN 1 24 Jun 11:58:10 12:02:25 64° 259° (W) 12:06:42 437.675
Gurwin Techsat 1B 24 Jun 12:03:38 12:06:42 16° 55° (NE) 12:09:46 435.225
YUBILEINY 24 Jun 12:04:07 12:08:04 14° 290° (WNW) 12:12:01 435.215
SPROUT 24 Jun 12:04:34 12:06:48 14° 89° (E) 12:09:02 437.525
QB50P2 24 Jun 12:09:08 12:13:14 45° 261° (W) 12:17:22 145.880/145.840
PCSat 24 Jun 12:18:56 12:23:58 41° 114° (ESE) 12:29:03 145.827
BUGSAT 1 24 Jun 12:29:22 12:33:29 73° 74° (ENE) 12:37:41 437.445
EO-79 24 Jun 12:34:44 12:38:23 28° 265° (W) 12:42:04 145.935-145.965
AO-7 24 Jun 12:34:51 12:39:31 16° 37° (NE) 12:44:12 .
DUCHIFAT 1 24 Jun 12:50:35 12:54:00 23° 267° (W) 12:57:27 145.980
Tancredo 1 24 Jun 12:53:35 12:56:32 44° 11° (NNE) 12:59:28 437.200
ISS 24 Jun 12:57:04 13:00:14 41° 5° (N) 13:03:24 437.550
Oscar 19 24 Jun 12:57:25 13:02:29 58° 70° (ENE) 13:07:32 437.125/150
50 SAT 24 Jun 12:57:37 13:00:00 18° 93° (E) 13:02:22 437.505
NANOSAT C BR1 24 Jun 12:59:01 13:01:57 18° 269° (W) 13:04:54 145.865
LO-87 24 Jun 12:59:31 13:02:24 22° 294° (WNW) 13:05:17 145.935 - 145.965
ESTCUBE 1 24 Jun 13:01:12 13:05:31 49° 290° (WNW) 13:09:49 437.505/2401.250
VELOX 1 24 Jun 13:08:09 13:12:30 53° 100° (E) 13:16:50 145.980
DX 1 24 Jun 13:32:03 13:35:59 32° 97° (E) 13:39:56 434.975-435.025
ITAMSAT 1 24 Jun 13:34:57 13:37:44 15° 54° (NE) 13:40:32 435.822/435.867
SPROUT 24 Jun 13:38:52 13:43:10 67° 287° (WNW) 13:47:26 437.525
Gurwin Techsat 1B 24 Jun 13:40:34 13:45:53 86° 73° (ENE) 13:51:15 435.225
UKube-1 24 Jun 13:51:44 13:55:43 35° 97° (E) 13:59:41 .
SO-50 24 Jun 13:57:15 14:00:09 17° 111° (ESE) 14:03:02 436.795
PCSat 24 Jun 14:02:19 14:07:24 40° 314° (NW) 14:12:32 145.827
BUGSAT 1 24 Jun 14:07:42 14:09:22 12° 272° (W) 14:11:02 437.445
AO-7 24 Jun 14:22:30 14:30:28 53° 60° (ENE) 14:38:29 .
Tancredo 1 24 Jun 14:29:11 14:32:12 53° 209° (SSW) 14:35:10 437.200
50 SAT 24 Jun 14:29:48 14:32:53 32° 291° (WNW) 14:35:57 437.505
ISS 24 Jun 14:33:37 14:36:56 86° 208° (SSW) 14:40:14 437.550
Oscar 19 24 Jun 14:38:18 14:42:11 21° 269° (W) 14:46:03 437.125/150
ITUPSAT 1 24 Jun 14:40:52 14:43:10 13° 88° (E) 14:45:27 437.325
VELOX 1 24 Jun 14:45:24 14:48:35 20° 299° (WNW) 14:51:47 145.980
BEESAT 24 Jun 14:51:02 14:54:09 17° 90° (E) 14:57:15 436.000
DX 1 24 Jun 15:08:20 15:12:07 29° 295° (WNW) 15:15:53 434.975-435.025
ITAMSAT 1 24 Jun 15:11:12 15:16:24 82° 73° (ENE) 15:21:40 435.822/435.867
Gurwin Techsat 1B 24 Jun 15:23:40 15:26:32 15° 273° (W) 15:29:26 435.225
UKube-1 24 Jun 15:27:59 15:31:37 27° 295° (WNW) 15:35:15 .
SO-50 24 Jun 15:35:33 15:40:06 73° 310° (NW) 15:44:38 436.795
PCSat 24 Jun 15:49:39 15:52:22 14° 338° (NNW) 15:55:05 145.827
MOZHAYETS 4 24 Jun 16:08:20 16:12:55 60° 101° (E) 16:17:26
ISS 24 Jun 16:10:47 16:13:02 17° 223° (SW) 16:15:16 437.550
CUTE-I 24 Jun 16:10:56 16:12:24 11° 50° (NE) 16:13:52 437.470
AO-7 24 Jun 16:15:36 16:23:24 43° 261° (W) 16:31:18 .
ITUPSAT 1 24 Jun 16:16:47 16:21:38 82° 285° (WNW) 16:26:24 437.325
BEESAT 24 Jun 16:27:37 16:32:23 65° 288° (WNW) 16:37:06 436.000
CUBESAT XI-V 24 Jun 16:46:30 16:50:35 30° 95° (E) 16:54:38 437.345
KAITUO 1B 24 Jun 16:48:03 16:49:19 11° 60° (ENE) 16:50:35 145.475/437.950
ITAMSAT 1 24 Jun 16:53:33 16:56:31 15° 272° (W) 16:59:30 435.822/435.867
DOVE 4 24 Jun 16:56:40 17:00:30 38° 69° (ENE) 17:04:30 437.250
SO-50 24 Jun 17:18:11 17:21:19 18° 331° (NNW) 17:24:27 436.795
NUDT-PHONESAT 24 Jun 17:23:13 17:26:19 25° 67° (ENE) 17:29:27 437.300
XW-2F 24 Jun 17:34:46 17:38:23 41° 71° (ENE) 17:42:00 145.980 - 146.000
HO-68 24 Jun 17:35:11 17:40:55 27° 54° (NE) 17:46:39 435.675
XW-2D 24 Jun 17:37:52 17:41:35 48° 72° (ENE) 17:45:18 145.860 - 145.880
LilacSat-2 24 Jun 17:44:43 17:48:31 59° 74° (ENE) 17:52:20 437.200
CUTE-I 24 Jun 17:46:09 17:51:22 59° 70° (ENE) 17:56:39 437.470
MOZHAYETS 4 24 Jun 17:46:27 17:49:38 19° 300° (WNW) 17:52:47
XW-2B 24 Jun 17:46:46 17:50:33 58° 73° (ENE) 17:54:20 145.730 - 145.750
KKS-1 24 Jun 17:49:52 17:54:23 84° 104° (ESE) 17:58:52 437.445
ITUPSAT 1 24 Jun 17:56:28 17:58:41 13° 305° (NW) 18:00:54 437.325
SEEDS 24 Jun 18:00:37 18:01:56 11° 58° (ENE) 18:03:14 437.485
XW-2C 24 Jun 18:02:07 18:05:58 89° 76° (ENE) 18:09:50 145.795 - 145.815
BEESAT 24 Jun 18:08:19 18:09:14 11° 307° (NW) 18:10:09 436.000
CUTE 1.7 + AOD 2 24 Jun 18:13:45 18:17:02 22° 64° (ENE) 18:20:20 437.475
CUBEBUG 2 24 Jun 18:15:00 18:17:40 15° 58° (ENE) 18:20:21 437.445
KAITUO 1B 24 Jun 18:18:59 18:22:46 75° 258° (WSW) 18:26:34 145.475/437.950
STARS 24 Jun 18:22:35 18:27:03 81° 103° (ESE) 18:31:30 437.465
CUBESAT XI-V 24 Jun 18:23:50 18:27:57 33° 293° (WNW) 18:32:04 437.345
XW-2A 24 Jun 18:29:55 18:32:28 20° 66° (ENE) 18:35:02 145.665 - 145.685
DOVE 4 24 Jun 18:35:06 18:38:24 22° 268° (W) 18:41:47 437.250
ZACube-1 24 Jun 18:49:09 18:50:54 12° 56° (ENE) 18:52:39 437.345
UWE-3 24 Jun 18:50:04 18:53:23 20° 61° (ENE) 18:56:44 435.000/436.395/437.385
AAUSAT CUBESAT 2 24 Jun 18:52:57 18:55:46 18° 63° (ENE) 18:58:34 437.432
NUDT-PHONESAT 24 Jun 18:56:51 19:00:08 28° 264° (W) 19:03:26 437.300
XW-2F 24 Jun 19:10:03 19:12:42 18° 268° (W) 19:15:21 145.980 - 146.000
XW-2D 24 Jun 19:13:41 19:16:02 15° 269° (W) 19:18:23 145.860 - 145.880
PCSat 24 Jun 19:20:14 19:24:06 19° 31° (NNE) 19:27:57 145.827
HO-68 24 Jun 19:20:45 19:27:58 79° 254° (WSW) 19:35:13 435.675
LilacSat-2 24 Jun 19:21:21 19:23:10 13° 271° (W) 19:24:59 437.200
XW-2B 24 Jun 19:23:16 19:25:06 13° 271° (W) 19:26:55 145.730 - 145.750
CUTE-I 24 Jun 19:27:44 19:31:49 22° 269° (W) 19:35:55 437.470
KKS-1 24 Jun 19:28:02 19:30:19 14° 303° (WNW) 19:32:35 437.445
SEEDS 24 Jun 19:32:44 19:36:57 88° 74° (ENE) 19:41:10 437.485
AO-73 24 Jun 19:47:54 19:52:02 35° 67° (ENE) 19:56:12 145.935
CUTE 1.7 + AOD 2 24 Jun 19:48:36 19:52:38 42° 262° (W) 19:56:41 437.475
CUBEBUG 2 24 Jun 19:49:00 19:53:37 81° 258° (WSW) 19:58:22 437.445
STARS 24 Jun 20:00:27 20:02:47 14° 302° (WNW) 20:05:07 437.465
XW-2A 24 Jun 20:01:57 20:05:02 31° 263° (W) 20:08:09 145.665 - 145.685
STRAND 1 24 Jun 20:10:58 20:16:06 60° 101° (ESE) 20:21:11 437.568
Oscar 11 24 Jun 20:16:11 20:20:24 50° 71° (ENE) 20:24:37 .
ZACube-1 24 Jun 20:21:50 20:26:24 81° 74° (ENE) 20:31:01 437.345
UWE-3 24 Jun 20:24:52 20:29:24 58° 260° (W) 20:34:02 435.000/436.395/437.385
AAUSAT CUBESAT 2 24 Jun 20:26:51 20:30:52 51° 261° (W) 20:34:54 437.432
DELFI C3 24 Jun 20:28:07 20:30:53 19° 64° (ENE) 20:33:40 145.870
SO-50 24 Jun 20:43:50 20:46:07 14° 21° (NNE) 20:48:25 436.795
RS-15 24 Jun 20:50:29 21:01:52 49° 111° (ESE) 21:13:25 29.354- 29.394
PCSat 24 Jun 21:03:02 21:08:30 71° 54° (NE) 21:13:54 145.827
BEESAT 2 24 Jun 21:05:47 21:07:06 11° 109° (ESE) 21:08:26 435.950
FO-29 24 Jun 21:09:56 21:15:35 21° 86° (E) 21:21:12 435.910
AO-85 24 Jun 21:11:13 21:15:11 57° 123° (ESE) 21:19:03 145.980
HO-68 24 Jun 21:12:37 21:16:50 16° 274° (W) 21:21:04 435.675
YUBILEINY 24 Jun 21:13:54 21:21:26 34° 82° (E) 21:29:01 435.215
AO-73 24 Jun 21:24:20 21:28:17 29° 266° (W) 21:32:18 145.935
CUBEBUG 2 24 Jun 21:30:32 21:31:01 10° 276° (W) 21:31:31 437.445
EO-88 24 Jun 21:38:58 21:42:38 72° 75° (ENE) 21:46:19 145.990 - 145.960
BEESAT 3 24 Jun 21:43:13 21:47:11 69° 124° (SE) 21:51:12 437.485
STRAND 1 24 Jun 21:50:55 21:54:52 23° 300° (WNW) 21:58:48 437.568
NO-84 24 Jun 21:53:03 21:56:18 24° 131° (SE) 21:59:43 435.350 FM
Oscar 11 24 Jun 21:53:46 21:56:49 18° 269° (W) 21:59:52 .
M-CUBED/EXP-1 PRIME 24 Jun 21:55:54 21:58:53 23° 102° (ESE) 22:02:01 437.505
TIGRISAT 24 Jun 22:00:29 22:04:09 22° 92° (E) 22:07:44 435.000
ZACube-1 24 Jun 22:01:12 22:03:16 13° 273° (W) 22:05:21 437.345
DELFI C3 24 Jun 22:01:39 22:05:23 43° 261° (W) 22:09:09 145.870
LO-87 24 Jun 22:05:27 22:08:11 21° 66° (ENE) 22:10:56 145.935 - 145.965
PRISM 24 Jun 22:08:05 22:11:29 25° 95° (E) 22:14:52 437.425
O/OREOS (USA 219) 24 Jun 22:13:20 22:17:52 81° 114° (ESE) 22:22:25 437.305
SO-50 24 Jun 22:23:24 22:27:44 43° 44° (NE) 22:32:04 436.795
ESTCUBE 1 24 Jun 22:27:39 22:31:28 28° 65° (ENE) 22:35:19 437.505/2401.250
VELOX 1 24 Jun 22:36:43 22:37:03 10° 55° (NE) 22:37:23 145.980
BEESAT 2 24 Jun 22:40:11 22:44:12 87° 311° (NW) 22:48:17 435.950
UNISAT 6 24 Jun 22:41:44 22:46:23 58° 100° (E) 22:50:55 437.425
PCSat 24 Jun 22:47:23 22:51:21 21° 253° (WSW) 22:55:18 145.827
AO-85 24 Jun 22:52:42 22:55:51 22° 323° (NW) 22:58:59 145.980
FO-29 24 Jun 22:53:42 23:01:32 87° 105° (ESE) 23:09:23 435.910
SPROUT 24 Jun 23:01:00 23:03:49 17° 61° (ENE) 23:06:39 437.525
RS-15 24 Jun 23:01:53 23:14:06 66° 317° (NW) 23:26:27 29.354- 29.394
AIST 2D 24 Jun 23:04:18 23:05:32 11° 89° (E) 23:06:46 435.315
YUBILEINY 24 Jun 23:08:59 23:17:42 64° 284° (WNW) 23:26:30 435.215
BEESAT 3 24 Jun 23:22:06 23:25:11 21° 325° (NW) 23:28:17 437.485
NO-84 24 Jun 23:29:28 23:33:32 72° 330° (NNW) 23:37:53 435.350 FM
M-CUBED/EXP-1 PRIME 24 Jun 23:30:06 23:33:22 32° 296° (WNW) 23:36:50 437.505
50 SAT 24 Jun 23:33:42 23:35:11 12° 62° (ENE) 23:36:42 437.505
TIGRISAT 24 Jun 23:36:34 23:41:04 47° 290° (WNW) 23:45:28 435.000
LO-87 24 Jun 23:38:17 23:41:28 30° 264° (W) 23:44:41 145.935 - 145.965
POLYITAN 1 24 Jun 23:40:28 23:43:17 17° 91° (E) 23:46:03 437.675
PRISM 24 Jun 23:43:06 23:46:49 34° 292° (WNW) 23:50:31 437.425
QB50P2 24 Jun 23:50:47 23:54:13 23° 93° (E) 23:57:37 145.880/145.840
O/OREOS (USA 219) 24 Jun 23:54:58 23:57:54 17° 314° (NW) 00:00:48 437.305
ESTCUBE 1 25 Jun 00:04:02 00:08:11 35° 263° (W) 00:12:19 437.505/2401.250
SO-50 25 Jun 00:04:07 00:08:04 30° 243° (WSW) 00:12:01 436.795
VELOX 1 25 Jun 00:08:20 00:12:41 71° 74° (ENE) 00:17:04 145.980
EO-79 25 Jun 00:15:11 00:19:11 36° 97° (E) 00:23:08 145.935-145.965
UNISAT 6 25 Jun 00:19:17 00:22:40 20° 299° (WNW) 00:26:00 437.425
BEESAT 2 25 Jun 00:19:49 00:22:33 17° 328° (NNW) 00:25:20 435.950
DUCHIFAT 1 25 Jun 00:30:01 00:34:06 42° 98° (E) 00:38:07 145.980
DX 1 25 Jun 00:30:32 00:34:37 43° 69° (ENE) 00:38:45 434.975-435.025
SPROUT 25 Jun 00:35:05 00:39:18 58° 259° (W) 00:43:34 437.525
AIST 2D 25 Jun 00:35:39 00:39:05 54° 286° (WNW) 00:42:30 435.315
NANOSAT C BR1 25 Jun 00:38:04 00:42:18 57° 101° (E) 00:46:29 145.865
FO-29 25 Jun 00:39:37 00:45:43 27° 305° (NW) 00:51:55 435.910
UKube-1 25 Jun 00:49:06 00:53:12 46° 69° (ENE) 00:57:20 .
50 SAT 25 Jun 01:04:17 01:07:35 51° 260° (W) 01:10:54 437.505
Oscar 19 25 Jun 01:06:45 01:09:44 15° 88° (E) 01:12:41 437.125/150
NO-84 25 Jun 01:07:48 01:11:40 33° 351° (N) 01:15:40 435.350 FM
